• In Germany
  • List of Countries
  • For 7 days
  • Water Temperature
  • Satellite Maps
  • Weather Map
  • Weather Widgets
  • user-avatar
    Login

    Hourly Weather Kerns

    Today, 30 May, Tuesday

    Time Temperature Precipitation Wind Pressure Humidity
    00:00 +19°C° 0 mm 5 mps 762 mmHg 82%
    01:00 +19°C° 0 mm 5 mps 762 mmHg 79%
    02:00 +19°C° 0 mm 5 mps 762 mmHg 80%
    03:00 +19°C° 0 mm 5 mps 762 mmHg 80%
    04:00 +19°C° 0 mm 5 mps 761 mmHg 79%
    05:00 +19°C° 0 mm 5 mps 761 mmHg 80%
    06:00 +19°C° 0 mm 5 mps 762 mmHg 82%
    07:00 +20°C° 0 mm 5 mps 762 mmHg 83%
    08:00 +22°C° 0 mm 5 mps 762 mmHg 76%
    09:00 +24°C° 0 mm 6 mps 762 mmHg 70%
    10:00 +28°C° 0 mm 6 mps 762 mmHg 63%
    11:00 +28°C° 0 mm 6 mps 762 mmHg 60%
    12:00 +29°C° 0 mm 6 mps 761 mmHg 57%
    13:00 +30°C° 0 mm 6 mps 761 mmHg 54%
    14:00 +30°C° 0 mm 6 mps 761 mmHg 57%
    15:00 +29°C° 0 mm 6 mps 761 mmHg 60%
    16:00 +28°C° 0 mm 6 mps 761 mmHg 63%
    17:00 +27°C° 0 mm 6 mps 761 mmHg 72%
    18:00 +24°C° 0 mm 6 mps 761 mmHg 81%
    19:00 +22°C° 0 mm 5 mps 762 mmHg 90%
    20:00 +22°C° 0 mm 5 mps 762 mmHg 91%
    21:00 +22°C° 0 mm 5 mps 762 mmHg 93%
    22:00 +21°C° 0 mm 5 mps 763 mmHg 94%
    23:00 +22°C° 0 mm 5 mps 762 mmHg 94%

    Tomorrow, 31 May, Wednesday

    Time Temperature Precipitation Wind Pressure Humidity
    00:00 +22°C° 0 mm 5 mps 762 mmHg 94%
    01:00 +22°C° 0 mm 5 mps 762 mmHg 94%
    02:00 +22°C° 0 mm 5 mps 761 mmHg 95%
    03:00 +22°C° 0 mm 5 mps 761 mmHg 95%
    04:00 +22°C° 0 mm 5 mps 761 mmHg 95%
    05:00 +22°C° 0 mm 5 mps 761 mmHg 96%
    06:00 +22°C° 0 mm 5 mps 761 mmHg 96%
    07:00 +22°C° 0 mm 6 mps 762 mmHg 96%
    08:00 +24°C° 0 mm 6 mps 762 mmHg 90%
    09:00 +26°C° 0 mm 6 mps 762 mmHg 83%
    10:00 +28°C° 0 mm 6 mps 762 mmHg 76%
    11:00 +28°C° 0 mm 7 mps 762 mmHg 73%
    12:00 +29°C° 0 mm 7 mps 761 mmHg 69%
    13:00 +30°C° 0 mm 7 mps 761 mmHg 66%
    14:00 +29°C° 0 mm 7 mps 761 mmHg 69%
    15:00 +29°C° 0 mm 7 mps 760 mmHg 72%
    16:00 +28°C° 0 mm 7 mps 760 mmHg 75%
    17:00 +27°C° 0.1 mm 7 mps 761 mmHg 79%
    18:00 +26°C° 0.1 mm 7 mps 761 mmHg 83%
    19:00 +24°C° 0.1 mm 7 mps 762 mmHg 86%
    20:00 +24°C° 0.2 mm 7 mps 762 mmHg 87%
    21:00 +24°C° 0.2 mm 7 mps 763 mmHg 87%
    22:00 +24°C° 0.2 mm 8 mps 763 mmHg 88%
    23:00 +24°C° 0.2 mm 8 mps 763 mmHg 86%

    Day after tomorrow, 1 June, Thursday

    Time Temperature Precipitation Wind Pressure Humidity
    00:00 +24°C° 0.2 mm 8 mps 763 mmHg 85%
    01:00 +23°C° 0.2 mm 8 mps 762 mmHg 84%
    02:00 +23°C° 0.2 mm 8 mps 762 mmHg 84%
    03:00 +23°C° 0.2 mm 8 mps 762 mmHg 85%
    04:00 +23°C° 0.2 mm 8 mps 762 mmHg 86%
    05:00 +23°C° 0.3 mm 8 mps 762 mmHg 86%
    06:00 +23°C° 0.3 mm 8 mps 762 mmHg 86%
    07:00 +23°C° 0.3 mm 8 mps 762 mmHg 86%
    08:00 +23°C° 0.3 mm 8 mps 763 mmHg 85%
    09:00 +24°C° 0.3 mm 9 mps 763 mmHg 83%
    10:00 +24°C° 0.3 mm 9 mps 764 mmHg 81%
    11:00 +24°C° 0.3 mm 9 mps 763 mmHg 81%
    12:00 +24°C° 0.3 mm 9 mps 763 mmHg 80%
    13:00 +24°C° 0.3 mm 9 mps 762 mmHg 79%
    14:00 +23°C° 0.1 mm 9 mps 762 mmHg 79%
    15:00 +23°C° 0.1 mm 9 mps 762 mmHg 79%
    16:00 +23°C° 0.1 mm 8 mps 762 mmHg 79%
    17:00 +22°C° 0.1 mm 8 mps 762 mmHg 81%
    18:00 +22°C° 0.1 mm 8 mps 762 mmHg 84%
    19:00 +22°C° 0.1 mm 8 mps 763 mmHg 86%
    20:00 +22°C° 0.3 mm 8 mps 763 mmHg 87%
    21:00 +22°C° 0.3 mm 8 mps 763 mmHg 88%
    22:00 +22°C° 0.3 mm 8 mps 764 mmHg 88%
    23:00 +22°C° 0.5 mm 8 mps 763 mmHg 88%

    2 June, Friday

    Time Temperature Precipitation Wind Pressure Humidity
    00:00 +23°C° 0.5 mm 8 mps 763 mmHg 87%
    01:00 +23°C° 0.5 mm 8 mps 763 mmHg 87%
    02:00 +23°C° 0.6 mm 8 mps 763 mmHg 88%
    03:00 +22°C° 0.6 mm 8 mps 762 mmHg 88%
    04:00 +22°C° 0.6 mm 8 mps 762 mmHg 89%
    05:00 +22°C° 0.5 mm 8 mps 762 mmHg 90%
    06:00 +22°C° 0.5 mm 8 mps 763 mmHg 90%
    07:00 +22°C° 0.5 mm 8 mps 763 mmHg 91%
    08:00 +23°C° 0.2 mm 8 mps 763 mmHg 89%
    09:00 +23°C° 0.2 mm 8 mps 764 mmHg 88%
    10:00 +23°C° 0.2 mm 8 mps 764 mmHg 86%
    11:00 +24°C° 0.2 mm 8 mps 764 mmHg 85%
    12:00 +24°C° 0.2 mm 8 mps 763 mmHg 84%
    13:00 +24°C° 0.2 mm 8 mps 763 mmHg 84%
    14:00 +23°C° 0.2 mm 8 mps 762 mmHg 84%
    15:00 +23°C° 0.2 mm 8 mps 762 mmHg 85%
    16:00 +23°C° 0.2 mm 8 mps 762 mmHg 86%
    17:00 +23°C° 0.1 mm 8 mps 762 mmHg 84%
    18:00 +23°C° 0.1 mm 8 mps 763 mmHg 82%
    19:00 +23°C° 0.1 mm 8 mps 763 mmHg 81%
    20:00 +23°C° 0.1 mm 8 mps 764 mmHg 81%
    21:00 +23°C° 0.1 mm 8 mps 764 mmHg 81%
    22:00 +22°C° 0.1 mm 8 mps 764 mmHg 81%
    23:00 +22°C° 0.1 mm 8 mps 764 mmHg 82%

    3 June, Saturday

    Time Temperature Precipitation Wind Pressure Humidity
    00:00 +22°C° 0.1 mm 8 mps 764 mmHg 84%
    01:00 +22°C° 0.1 mm 8 mps 763 mmHg 85%
    02:00 +22°C° 0 mm 7 mps 763 mmHg 85%
    03:00 +22°C° 0 mm 7 mps 763 mmHg 85%
    04:00 +22°C° 0 mm 7 mps 762 mmHg 86%
    05:00 +22°C° 0 mm 7 mps 763 mmHg 86%
    06:00 +22°C° 0 mm 7 mps 763 mmHg 86%
    07:00 +22°C° 0 mm 7 mps 763 mmHg 87%
    08:00 +23°C° 0.1 mm 7 mps 764 mmHg 83%
    09:00 +23°C° 0.1 mm 7 mps 764 mmHg 80%
    10:00 +24°C° 0.1 mm 7 mps 764 mmHg 77%
    11:00 +24°C° 0.1 mm 7 mps 763 mmHg 78%
    12:00 +24°C° 0.1 mm 7 mps 763 mmHg 79%
    13:00 +24°C° 0.1 mm 7 mps 762 mmHg 80%
    14:00 +24°C° 0.1 mm 7 mps 762 mmHg 80%
    15:00 +24°C° 0.1 mm 6 mps 762 mmHg 81%
    16:00 +24°C° 0.1 mm 6 mps 762 mmHg 81%
    17:00 +24°C° 0.2 mm 6 mps 762 mmHg 84%
    18:00 +23°C° 0.2 mm 6 mps 763 mmHg 87%
    19:00 +22°C° 0.2 mm 6 mps 763 mmHg 89%
    20:00 +22°C° 0.2 mm 6 mps 763 mmHg 90%
    21:00 +22°C° 0.2 mm 6 mps 763 mmHg 90%
    22:00 +22°C° 0.2 mm 6 mps 764 mmHg 91%
    23:00 +22°C° 0.3 mm 6 mps 763 mmHg 92%

    4 June, Sunday

    Time Temperature Precipitation Wind Pressure Humidity
    00:00 +21°C° 0.3 mm 6 mps 763 mmHg 93%
    01:00 +21°C° 0.3 mm 6 mps 762 mmHg 94%
    02:00 +21°C° 0.2 mm 6 mps 762 mmHg 93%
    03:00 +21°C° 0.2 mm 6 mps 762 mmHg 93%
    04:00 +21°C° 0.2 mm 6 mps 762 mmHg 93%
    05:00 +21°C° 0.1 mm 6 mps 762 mmHg 93%
    06:00 +21°C° 0.1 mm 6 mps 762 mmHg 93%
    07:00 +21°C° 0.1 mm 6 mps 762 mmHg 92%
    08:00 +22°C° 0.1 mm 6 mps 763 mmHg 87%
    09:00 +23°C° 0.1 mm 6 mps 763 mmHg 81%
    10:00 +26°C° 0.1 mm 6 mps 763 mmHg 75%
    11:00 +26°C° 0.1 mm 6 mps 762 mmHg 72%
    12:00 +27°C° 0.1 mm 6 mps 762 mmHg 70%
    13:00 +27°C° 0.1 mm 7 mps 761 mmHg 67%
    14:00 +27°C° 0.1 mm 6 mps 761 mmHg 70%
    15:00 +26°C° 0.1 mm 6 mps 761 mmHg 73%
    16:00 +24°C° 0.1 mm 6 mps 760 mmHg 76%
    17:00 +23°C° 0.1 mm 6 mps 761 mmHg 81%
    18:00 +22°C° 0.1 mm 6 mps 761 mmHg 86%
    19:00 +21°C° 0.1 mm 6 mps 762 mmHg 91%
    20:00 +21°C° 0.2 mm 5 mps 762 mmHg 92%
    21:00 +21°C° 0.2 mm 5 mps 762 mmHg 93%
    22:00 +21°C° 0.2 mm 5 mps 762 mmHg 94%
    23:00 +21°C° 0.3 mm 5 mps 762 mmHg 95%
    Show more